Dauntless Aviation
Airports Asia Indonesia
WIHH
HLP

Halim Perdanakusuma International Airport

Jakarta, INDONESIA

Airport Info
Suggest Updated Information for this Airport

Location

Latitude / Longitude: 6°15'59"S / 106°53'27"E
  6°15.996'S / 106°53.46'E
  -6.2666 / 106.8910

Nearby radio navigation aids

AL HALIM PERDANAKUSUMA NDB. 243.5° 9.9nm from AL to field.
HLM HALIM PERDANAKUSUMA VOR/DME on field.

Runway Information

Runway 06 /24

Dimensions: 9843 x 197 ft.
Surface: ASP
 
Runway 06
Runway 24
Latitude: -6.272253 -6.261711
Longitude: 106.878792 106.9018
Elevation: 79 ft. 79 ft.
Runway true heading: 64 244
 

Instrument Procedures

  Aerodrome Chart

IAPs (Instrument Approach Procedures)

  ILS Rwy 24
  VOR Rwy 24
  VOR/DME Rwy 24
  VOR Rwy 06
  NDB Rwy 24

Departure Procedures

  SID 2M Departures
  SID 1H/ 2H Departures
Satellite photo at:
Airport distance calculator
From:
Weather Reports

METAR

WIHH

WIHH 300100Z 09004KT 5000 HZ NSC 26/24 Q1012 NOSIG
WIII
15.6nm W
WIII 300100Z VRB05KT 3000 BR FEW022 27/25 Q1011 NOSIG

TAF

WIHH
TAF WIHH 292300Z 3000/3024 14006KT 5000 HZ FEW018 BECMG 3003/3005 27008KT 6000 SCT018 TEMPO 3009/3012 33010KT 4000 -RA FEW016CB SCT017 BECMG 3013/3015 09005KT 4000 HZ SCT020
WIII
15.6nm W
TAF WIII 292300Z 3000/0106 VRB02KT 3000 BR FEW020CB FEW021 SCT120 BECMG 3001/3003 05010KT 9000 NSW SCT022 TEMPO 3007/3010 VCTS FEW021CB BECMG 3010/3012 VRB02KT 5000 HZ BECMG 0101/0103 07008KT 9000 NSW
Safelog

 

Dauntless Aviation

© 2007-2016 Dauntless Aviation, all rights reserved
Information provided via PilotNav comes from a variety of official and unofficial data sources. As errors are possible, do not use PilotNav for primary flight planning purposes. Verify any information that you receive via PilotNav with current and canonical charts and other official documents. The material in this database is subject to database copyrights held by Dauntless Aviation and may not be copied without the express permission of Dauntless Aviation - licenses for use of part of all of this data are available for purchase; enquire via the Dauntless Aviation helpdesk. A number of mechanisms and markers exist in the database to protect against and identify infringement / copyright. Automated queries against this website are stictly prohibited, and all activity is logged and analyzed.